EVE24L LEBL-GMMN

Flight info

Callsign EVE24L
Flight time 2h 3m
Altitude 41000
Route LOTOS DCT TORDU DCT DIKUT DCT SOPET DCT VLC DCT SERRA DCT ASTRO DCT POBOS DCT XEBAR DCT YES DCT MAMIS DCT BAZAS DCT VIBAS DCT MGA DCT PIMOS DCT GALTO UB11 TUSOR
Aircraft A359/H-SDE2E3GHIJ3J4J5LM1ORWXY/LB1D1

Departure

Time 2026-05-05 08:57
Airport Josep Tarradellas Barcelona-El Prat Airport (LEBL)

Arrival

Time 2026-05-05 11:01
Airport Mohammed V International Airport (GMMN)
Time Latitude Longitude Altitude Speed Heading
2026-05-05 08:30 41.29101 2.08274 29 ft 0 kts 332°
2026-05-05 08:41 41.29099 2.08276 25 ft 2 kts 331°
2026-05-05 08:42 41.29087 2.08285 31 ft 2 kts 331°
2026-05-05 08:42 41.29075 2.08293 31 ft 2 kts 345°
2026-05-05 08:42 41.29062 2.08296 31 ft 2 kts 13°
2026-05-05 08:42 41.29049 2.08291 31 ft 2 kts 20°
2026-05-05 08:43 41.29037 2.08285 31 ft 2 kts 26°
2026-05-05 08:43 41.29025 2.08276 30 ft 2 kts 41°
2026-05-05 08:43 41.29016 2.08263 30 ft 2 kts 65°
2026-05-05 08:43 41.29014 2.08257 31 ft 0 kts 65°
2026-05-05 08:49 41.29015 2.08260 31 ft 2 kts 65°
2026-05-05 08:49 41.29009 2.08328 30 ft 8 kts 138°
2026-05-05 08:50 41.28966 2.08334 27 ft 10 kts 188°
2026-05-05 08:50 41.28885 2.08301 25 ft 14 kts 198°
2026-05-05 08:50 41.28778 2.08254 25 ft 17 kts 198°
2026-05-05 08:50 41.28719 2.08257 27 ft 5 kts 127°
2026-05-05 08:51 41.28720 2.08311 26 ft 10 kts 76°
2026-05-05 08:51 41.28758 2.08427 26 ft 15 kts 65°
2026-05-05 08:51 41.28805 2.08561 28 ft 18 kts 65°
2026-05-05 08:51 41.28861 2.08722 27 ft 20 kts 65°
2026-05-05 08:52 41.28924 2.08905 25 ft 23 kts 65°
2026-05-05 08:52 41.28994 2.09107 27 ft 25 kts 65°
2026-05-05 08:52 41.29071 2.09327 25 ft 27 kts 65°
2026-05-05 08:52 41.29147 2.09551 26 ft 17 kts 66°
2026-05-05 08:53 41.29199 2.09706 26 ft 20 kts 66°
2026-05-05 08:53 41.29250 2.09863 26 ft 17 kts 66°
2026-05-05 08:53 41.29312 2.10006 26 ft 19 kts 65°
2026-05-05 08:53 41.29364 2.10160 26 ft 11 kts 68°
2026-05-05 08:54 41.29338 2.10258 24 ft 10 kts 147°
2026-05-05 08:54 41.29335 2.10261 24 ft 0 kts 154°
2026-05-05 08:54 41.29326 2.10266 23 ft 5 kts 154°
2026-05-05 08:55 41.29263 2.10306 23 ft 12 kts 160°
2026-05-05 08:55 41.29200 2.10264 25 ft 11 kts 239°
2026-05-05 08:55 41.29190 2.10236 24 ft 0 kts 246°
2026-05-05 08:56 41.29111 2.09998 27 ft 68 kts 246°
2026-05-05 08:56 41.28809 2.09121 26 ft 138 kts 245°
2026-05-05 08:57 41.28341 2.07755 331 ft 171 kts 248°
2026-05-05 08:57 41.27873 2.06322 1219 ft 170 kts 246°
2026-05-05 08:57 41.27095 2.04955 1590 ft 204 kts 219°
2026-05-05 08:57 41.25750 2.04226 2139 ft 223 kts 187°
2026-05-05 08:58 41.24195 2.04559 2933 ft 231 kts 161°
2026-05-05 08:58 41.22658 2.05252 3815 ft 234 kts 167°
2026-05-05 08:58 41.21055 2.05598 4730 ft 233 kts 178°
2026-05-05 08:58 41.19444 2.05549 5715 ft 228 kts 186°
2026-05-05 08:59 41.17893 2.05368 6822 ft 219 kts 191°
2026-05-05 08:59 41.16433 2.04758 7658 ft 225 kts 204°
2026-05-05 08:59 41.14995 2.03866 8475 ft 231 kts 207°
2026-05-05 08:59 41.13551 2.02903 9420 ft 233 kts 208°
2026-05-05 09:00 41.12097 2.01919 10351 ft 235 kts 209°
2026-05-05 09:00 41.10633 2.00927 11278 ft 239 kts 209°
2026-05-05 09:00 41.09161 1.99923 12235 ft 242 kts 210°
2026-05-05 09:00 41.07774 1.98658 13224 ft 244 kts 225°
2026-05-05 09:01 41.06790 1.96765 14006 ft 255 kts 245°
2026-05-05 09:01 41.06221 1.94465 14399 ft 276 kts 253°
2026-05-05 09:01 41.05724 1.91912 14759 ft 296 kts 253°
2026-05-05 09:01 41.05158 1.89206 15143 ft 314 kts 250°
2026-05-05 09:02 41.04395 1.86416 15496 ft 330 kts 247°
2026-05-05 09:02 41.03547 1.83531 16046 ft 340 kts 247°
2026-05-05 09:02 41.02676 1.80599 16834 ft 344 kts 247°
2026-05-05 09:02 41.01797 1.77640 17680 ft 346 kts 247°
2026-05-05 09:03 41.00913 1.74671 18513 ft 347 kts 247°
2026-05-05 09:03 41.00025 1.71692 19318 ft 348 kts 247°
2026-05-05 09:03 40.99134 1.68705 20133 ft 349 kts 247°
2026-05-05 09:03 40.98241 1.65715 20960 ft 351 kts 247°
2026-05-05 09:04 40.97342 1.62710 21789 ft 352 kts 246°
2026-05-05 09:04 40.96438 1.59692 22606 ft 353 kts 246°
2026-05-05 09:04 40.95531 1.56664 23392 ft 355 kts 246°
2026-05-05 09:04 40.94684 1.53582 24048 ft 358 kts 250°
2026-05-05 09:05 40.93961 1.50402 24613 ft 364 kts 251°
2026-05-05 09:05 40.93248 1.47218 25163 ft 368 kts 251°
2026-05-05 09:05 40.92498 1.43927 25809 ft 370 kts 251°
2026-05-05 09:05 40.91743 1.40662 26429 ft 373 kts 251°
2026-05-05 09:06 40.90976 1.37378 27040 ft 375 kts 251°
2026-05-05 09:06 40.90200 1.34070 27598 ft 378 kts 251°
2026-05-05 09:06 40.89415 1.30743 28217 ft 380 kts 251°
2026-05-05 09:06 40.88624 1.27391 28809 ft 383 kts 251°
2026-05-05 09:07 40.87819 1.24024 29354 ft 386 kts 250°
2026-05-05 09:07 40.86858 1.20757 29870 ft 388 kts 245°
2026-05-05 09:07 40.85551 1.17617 30336 ft 391 kts 238°
2026-05-05 09:07 40.83896 1.14740 30754 ft 396 kts 231°
2026-05-05 09:08 40.81908 1.12181 31122 ft 403 kts 223°
2026-05-05 09:08 40.79605 1.10010 31487 ft 411 kts 216°
2026-05-05 09:08 40.77022 1.08293 31883 ft 419 kts 208°
2026-05-05 09:08 40.74227 1.07062 32253 ft 427 kts 202°
2026-05-05 09:09 40.71344 1.06038 32606 ft 431 kts 201°
2026-05-05 09:09 40.68429 1.05029 32945 ft 433 kts 201°
2026-05-05 09:09 40.65509 1.04009 33280 ft 436 kts 201°
2026-05-05 09:09 40.62576 1.02980 33695 ft 436 kts 201°
2026-05-05 09:10 40.59713 1.01894 34161 ft 431 kts 204°
2026-05-05 09:10 40.56954 1.00417 34517 ft 426 kts 211°
2026-05-05 09:10 40.54409 0.98473 34837 ft 421 kts 218°
2026-05-05 09:10 40.52117 0.96096 35158 ft 419 kts 225°
2026-05-05 09:11 40.50056 0.93402 35461 ft 418 kts 229°
2026-05-05 09:11 40.48068 0.90616 35784 ft 418 kts 230°
2026-05-05 09:11 40.46110 0.87796 36103 ft 417 kts 230°
2026-05-05 09:11 40.44170 0.84982 36505 ft 415 kts 230°
2026-05-05 09:12 40.42229 0.82173 36790 ft 416 kts 230°
2026-05-05 09:12 40.40276 0.79363 37048 ft 417 kts 230°
2026-05-05 09:12 40.38312 0.76554 37308 ft 418 kts 230°
2026-05-05 09:12 40.36335 0.73739 37495 ft 422 kts 229°
2026-05-05 09:13 40.34338 0.70906 37673 ft 424 kts 229°
2026-05-05 09:13 40.32336 0.68070 37964 ft 424 kts 229°
2026-05-05 09:13 40.30327 0.65229 38256 ft 424 kts 229°
2026-05-05 09:13 40.28321 0.62395 38491 ft 424 kts 229°
2026-05-05 09:14 40.26313 0.59559 38729 ft 425 kts 229°
2026-05-05 09:14 40.24304 0.56721 38918 ft 425 kts 229°
2026-05-05 09:14 40.22303 0.53898 39164 ft 424 kts 229°
2026-05-05 09:14 40.20291 0.51066 39338 ft 424 kts 229°
2026-05-05 09:15 40.18273 0.48230 39508 ft 425 kts 229°
2026-05-05 09:15 40.16259 0.45401 39673 ft 426 kts 229°
2026-05-05 09:15 40.14237 0.42562 39839 ft 427 kts 229°
2026-05-05 09:15 40.12210 0.39720 40004 ft 428 kts 229°
2026-05-05 09:16 40.10202 0.36906 40159 ft 429 kts 229°
2026-05-05 09:16 40.06116 0.31186 40389 ft 432 kts 229°
2026-05-05 09:16 40.04063 0.28317 40553 ft 433 kts 229°
2026-05-05 09:17 40.02007 0.25448 40693 ft 433 kts 229°
2026-05-05 09:17 39.99955 0.22584 40893 ft 432 kts 229°
2026-05-05 09:17 39.97902 0.19715 40954 ft 433 kts 229°
2026-05-05 09:18 39.93791 0.13987 40944 ft 432 kts 229°
2026-05-05 09:18 39.89672 0.08262 40948 ft 432 kts 229°
2026-05-05 09:19 39.85574 0.02573 40947 ft 432 kts 229°
2026-05-05 09:19 39.81451 -0.03146 40941 ft 433 kts 229°
2026-05-05 09:20 39.77322 -0.08854 40944 ft 434 kts 229°
2026-05-05 09:20 39.73180 -0.14561 40942 ft 433 kts 229°
2026-05-05 09:21 39.69048 -0.20248 40940 ft 433 kts 229°
2026-05-05 09:21 39.64905 -0.25942 40940 ft 433 kts 229°
2026-05-05 09:22 39.60764 -0.31624 40936 ft 433 kts 229°
2026-05-05 09:22 39.56643 -0.37267 40921 ft 433 kts 229°
2026-05-05 09:23 39.52493 -0.42939 40936 ft 433 kts 229°
2026-05-05 09:23 39.48442 -0.48651 40941 ft 431 kts 234°
2026-05-05 09:24 39.44754 -0.54774 40940 ft 431 kts 234°
2026-05-05 09:24 39.41133 -0.60955 40937 ft 431 kts 234°
2026-05-05 09:25 39.37519 -0.67138 40938 ft 431 kts 234°
2026-05-05 09:25 39.33897 -0.73308 40938 ft 431 kts 234°
2026-05-05 09:26 39.30271 -0.79462 40966 ft 430 kts 234°
2026-05-05 09:26 39.26637 -0.85617 40960 ft 431 kts 234°
2026-05-05 09:27 39.23020 -0.91739 40969 ft 431 kts 234°
2026-05-05 09:27 39.19378 -0.97878 40969 ft 431 kts 234°
2026-05-05 09:28 39.15728 -1.04019 40963 ft 431 kts 234°
2026-05-05 09:28 39.12082 -1.10144 40978 ft 431 kts 234°
2026-05-05 09:29 39.08432 -1.16266 40982 ft 431 kts 234°
2026-05-05 09:29 39.04780 -1.22380 40988 ft 431 kts 234°
2026-05-05 09:30 39.01124 -1.28491 40989 ft 431 kts 234°
2026-05-05 09:30 38.97464 -1.34596 40988 ft 431 kts 234°
2026-05-05 09:31 38.93800 -1.40693 40994 ft 431 kts 234°
2026-05-05 09:31 38.90133 -1.46786 40993 ft 431 kts 234°
2026-05-05 09:32 38.86462 -1.52873 41003 ft 431 kts 234°
2026-05-05 09:32 38.82811 -1.58918 40994 ft 431 kts 234°
2026-05-05 09:33 38.79131 -1.64997 40995 ft 432 kts 234°
2026-05-05 09:33 38.75446 -1.71073 40993 ft 432 kts 234°
2026-05-05 09:34 38.71755 -1.77149 40994 ft 432 kts 234°
2026-05-05 09:34 38.68067 -1.83206 40993 ft 432 kts 234°
2026-05-05 09:35 38.64366 -1.89270 40997 ft 432 kts 234°
2026-05-05 09:35 38.58835 -1.98311 40992 ft 432 kts 234°
2026-05-05 09:36 38.55129 -2.04356 40997 ft 432 kts 234°
2026-05-05 09:36 38.51425 -2.10389 40994 ft 432 kts 234°
2026-05-05 09:37 38.47714 -2.16432 41002 ft 432 kts 234°
2026-05-05 09:37 38.43997 -2.22458 41003 ft 432 kts 234°
2026-05-05 09:38 38.40906 -2.27465 41001 ft 432 kts 234°
2026-05-05 09:38 38.37188 -2.33474 41009 ft 432 kts 234°
2026-05-05 09:39 38.33165 -2.39198 41009 ft 433 kts 230°
2026-05-05 09:39 38.29024 -2.44788 41012 ft 433 kts 229°
2026-05-05 09:40 38.24865 -2.50350 41017 ft 434 kts 229°
2026-05-05 09:40 38.20735 -2.55868 41017 ft 434 kts 229°
2026-05-05 09:41 38.16576 -2.61425 41016 ft 434 kts 229°
2026-05-05 09:41 38.12414 -2.66980 41018 ft 433 kts 229°
2026-05-05 09:42 38.08263 -2.72509 41020 ft 433 kts 229°
2026-05-05 09:42 38.04103 -2.78041 41021 ft 433 kts 229°
2026-05-05 09:43 37.99936 -2.83572 41022 ft 433 kts 229°
2026-05-05 09:43 37.95799 -2.89053 41016 ft 433 kts 229°
2026-05-05 09:44 37.91641 -2.94564 41003 ft 433 kts 229°
2026-05-05 09:44 37.87468 -3.00070 41027 ft 432 kts 229°
2026-05-05 09:45 37.83298 -3.05561 41028 ft 433 kts 229°
2026-05-05 09:45 37.79116 -3.11063 41024 ft 434 kts 229°
2026-05-05 09:46 37.74928 -3.16563 41022 ft 434 kts 229°
2026-05-05 09:46 37.70741 -3.22062 41024 ft 434 kts 229°
2026-05-05 09:47 37.66541 -3.27557 40997 ft 434 kts 229°
2026-05-05 09:47 37.62371 -3.33002 41018 ft 434 kts 229°
2026-05-05 09:48 37.58167 -3.38484 41018 ft 434 kts 229°
2026-05-05 09:48 37.53965 -3.43955 41024 ft 434 kts 229°
2026-05-05 09:49 37.49761 -3.49420 41027 ft 434 kts 229°
2026-05-05 09:49 37.45554 -3.54880 41015 ft 434 kts 229°
2026-05-05 09:50 37.41345 -3.60333 41007 ft 434 kts 229°
2026-05-05 09:50 37.37134 -3.65787 41019 ft 434 kts 229°
2026-05-05 09:51 37.32920 -3.71227 41022 ft 435 kts 229°
2026-05-05 09:51 37.28692 -3.76671 41023 ft 435 kts 229°
2026-05-05 09:52 37.24468 -3.82103 41054 ft 435 kts 229°
2026-05-05 09:52 37.20242 -3.87530 41047 ft 435 kts 229°
2026-05-05 09:53 37.16010 -3.92957 41029 ft 434 kts 229°
2026-05-05 09:53 37.11808 -3.98335 41040 ft 435 kts 229°
2026-05-05 09:54 37.07571 -4.03750 41034 ft 435 kts 229°
2026-05-05 09:54 37.03337 -4.09151 41021 ft 434 kts 229°
2026-05-05 09:55 36.99096 -4.14552 41019 ft 435 kts 229°
2026-05-05 09:55 36.94851 -4.19949 41011 ft 435 kts 228°
2026-05-05 09:56 36.90632 -4.25305 40993 ft 435 kts 228°
2026-05-05 09:56 36.86384 -4.30688 41003 ft 435 kts 228°
2026-05-05 09:57 36.82067 -4.35990 40999 ft 437 kts 224°
2026-05-05 09:57 36.77106 -4.40433 40995 ft 440 kts 217°
2026-05-05 09:58 36.71939 -4.44573 40992 ft 441 kts 216°
2026-05-05 09:58 36.66776 -4.48634 40993 ft 441 kts 216°
2026-05-05 09:59 36.61587 -4.52726 40992 ft 442 kts 216°
2026-05-05 09:59 36.56400 -4.56828 40995 ft 442 kts 217°
2026-05-05 10:00 36.51212 -4.60929 41020 ft 442 kts 217°
2026-05-05 10:00 36.46025 -4.65023 41021 ft 442 kts 217°
2026-05-05 10:01 36.40837 -4.69111 40991 ft 442 kts 216°
2026-05-05 10:01 36.35636 -4.73203 41010 ft 442 kts 217°
2026-05-05 10:02 36.30434 -4.77288 41010 ft 443 kts 217°
2026-05-05 10:02 36.25265 -4.81340 41009 ft 443 kts 217°
2026-05-05 10:03 36.20052 -4.85421 41009 ft 443 kts 217°
2026-05-05 10:03 36.14840 -4.89495 41006 ft 443 kts 216°
2026-05-05 10:04 36.09642 -4.93597 41031 ft 443 kts 217°
2026-05-05 10:04 36.04456 -4.97708 41034 ft 443 kts 217°
2026-05-05 10:05 35.99270 -5.01810 41031 ft 443 kts 217°
2026-05-05 10:05 35.94074 -5.05909 41038 ft 443 kts 217°
2026-05-05 10:06 35.88876 -5.10000 41041 ft 443 kts 217°
2026-05-05 10:06 35.83676 -5.14086 41024 ft 443 kts 217°
2026-05-05 10:07 35.78436 -5.18100 41018 ft 444 kts 215°
2026-05-05 10:07 35.73131 -5.22004 41022 ft 444 kts 215°
2026-05-05 10:08 35.67849 -5.25889 41022 ft 444 kts 215°
2026-05-05 10:08 35.62549 -5.29809 41007 ft 444 kts 215°
2026-05-05 10:09 35.57290 -5.33796 41023 ft 442 kts 218°
2026-05-05 10:09 35.52332 -5.38227 41025 ft 441 kts 221°
2026-05-05 10:10 35.47433 -5.42753 41019 ft 441 kts 220°
2026-05-05 10:10 35.42485 -5.47221 41021 ft 441 kts 220°
2026-05-05 10:11 35.37517 -5.51627 41004 ft 441 kts 220°
2026-05-05 10:11 35.32569 -5.55990 41043 ft 441 kts 220°
2026-05-05 10:12 35.27590 -5.60376 41050 ft 441 kts 220°
2026-05-05 10:12 35.22608 -5.64763 41054 ft 441 kts 220°
2026-05-05 10:13 35.17629 -5.69141 41062 ft 441 kts 220°
2026-05-05 10:13 35.12650 -5.73514 41054 ft 441 kts 220°
2026-05-05 10:14 35.07665 -5.77884 41068 ft 441 kts 220°
2026-05-05 10:14 35.02681 -5.82246 41066 ft 440 kts 220°
2026-05-05 10:15 34.97701 -5.86598 41077 ft 440 kts 220°
2026-05-05 10:15 34.92748 -5.90920 41068 ft 440 kts 220°
2026-05-05 10:16 34.87830 -5.95339 41069 ft 438 kts 223°
2026-05-05 10:16 34.83143 -6.00091 41058 ft 438 kts 223°
2026-05-05 10:17 34.78446 -6.04800 41067 ft 437 kts 223°
2026-05-05 10:17 34.73727 -6.09490 41068 ft 437 kts 223°
2026-05-05 10:18 34.69011 -6.14158 41065 ft 437 kts 223°
2026-05-05 10:18 34.64317 -6.18793 41066 ft 437 kts 223°
2026-05-05 10:19 34.59595 -6.23448 41065 ft 437 kts 223°
2026-05-05 10:19 34.54874 -6.28095 41053 ft 436 kts 223°
2026-05-05 10:20 34.49957 -6.32433 41061 ft 441 kts 214°
2026-05-05 10:20 34.44175 -6.35164 41061 ft 450 kts 202°
2026-05-05 10:21 34.38161 -6.37253 40794 ft 450 kts 202°
2026-05-05 10:21 34.35184 -6.38288 40568 ft 450 kts 202°
2026-05-05 10:21 34.32184 -6.39335 39934 ft 449 kts 202°
2026-05-05 10:22 34.29168 -6.40391 39151 ft 451 kts 202°
2026-05-05 10:22 34.26148 -6.41448 38371 ft 452 kts 202°
2026-05-05 10:22 34.23122 -6.42507 37556 ft 452 kts 202°
2026-05-05 10:22 34.20102 -6.43563 36841 ft 451 kts 202°
2026-05-05 10:23 34.17088 -6.44617 36097 ft 451 kts 202°
2026-05-05 10:23 34.14073 -6.45670 35359 ft 451 kts 202°
2026-05-05 10:23 34.11047 -6.46727 34556 ft 453 kts 201°
2026-05-05 10:23 34.08006 -6.47790 33631 ft 457 kts 201°
2026-05-05 10:24 34.04943 -6.48859 32682 ft 460 kts 200°
2026-05-05 10:24 34.01895 -6.49922 31772 ft 462 kts 200°
2026-05-05 10:24 33.98835 -6.51152 30782 ft 462 kts 206°
2026-05-05 10:24 33.96035 -6.53030 29790 ft 461 kts 219°
2026-05-05 10:25 33.93639 -6.55535 29126 ft 453 kts 226°
2026-05-05 10:25 33.91392 -6.58158 28485 ft 447 kts 226°
2026-05-05 10:25 33.89180 -6.60766 27841 ft 443 kts 226°
2026-05-05 10:25 33.86987 -6.63347 27186 ft 439 kts 226°
2026-05-05 10:26 33.84808 -6.65906 26546 ft 435 kts 226°
2026-05-05 10:26 33.82674 -6.68407 25914 ft 431 kts 226°
2026-05-05 10:26 33.80535 -6.70911 25290 ft 427 kts 226°
2026-05-05 10:26 33.78408 -6.73398 24649 ft 424 kts 226°
2026-05-05 10:27 33.76302 -6.75858 24008 ft 420 kts 226°
2026-05-05 10:27 33.74214 -6.78294 23347 ft 417 kts 226°
2026-05-05 10:27 33.72147 -6.80705 22683 ft 411 kts 226°
2026-05-05 10:27 33.70107 -6.83082 22059 ft 406 kts 226°
2026-05-05 10:28 33.68088 -6.85433 21444 ft 401 kts 226°
2026-05-05 10:28 33.66763 -6.86967 21033 ft 398 kts 226°
2026-05-05 10:28 33.63816 -6.89554 20153 ft 399 kts 210°
2026-05-05 10:28 33.61235 -6.90794 19479 ft 400 kts 202°
2026-05-05 10:29 33.58597 -6.91836 18807 ft 398 kts 201°
2026-05-05 10:29 33.55967 -6.92857 18088 ft 396 kts 202°
2026-05-05 10:29 33.53353 -6.93876 17361 ft 393 kts 201°
2026-05-05 10:29 33.51634 -6.94550 16912 ft 391 kts 201°
2026-05-05 10:30 33.49061 -6.95562 16232 ft 387 kts 201°
2026-05-05 10:30 33.46511 -6.96565 15546 ft 384 kts 201°
2026-05-05 10:30 33.43976 -6.97564 14858 ft 381 kts 201°
2026-05-05 10:30 33.41466 -6.98554 14184 ft 378 kts 201°
2026-05-05 10:31 33.38973 -6.99537 13478 ft 376 kts 201°
2026-05-05 10:31 33.36493 -7.00514 12771 ft 373 kts 201°
2026-05-05 10:31 33.34041 -7.01478 12105 ft 369 kts 201°
2026-05-05 10:31 33.31615 -7.02432 11428 ft 365 kts 201°
2026-05-05 10:32 33.29212 -7.03378 10852 ft 360 kts 201°
2026-05-05 10:32 33.26888 -7.04287 10706 ft 342 kts 201°
2026-05-05 10:32 33.24681 -7.05151 10579 ft 325 kts 201°
2026-05-05 10:32 33.22588 -7.05971 10452 ft 309 kts 201°
2026-05-05 10:33 33.20616 -7.06825 10323 ft 293 kts 208°
2026-05-05 10:33 33.19012 -7.08176 10197 ft 274 kts 229°
2026-05-05 10:33 33.18020 -7.10024 10083 ft 258 kts 250°
2026-05-05 10:33 33.17558 -7.12089 9971 ft 264 kts 260°
2026-05-05 10:34 33.17223 -7.14286 9914 ft 271 kts 261°
2026-05-05 10:34 33.16900 -7.16464 9476 ft 270 kts 260°
2026-05-05 10:34 33.16565 -7.18683 8960 ft 272 kts 260°
2026-05-05 10:34 33.16226 -7.20899 8561 ft 270 kts 260°
2026-05-05 10:35 33.15887 -7.23097 8216 ft 269 kts 260°
2026-05-05 10:35 33.15546 -7.25289 7869 ft 268 kts 260°
2026-05-05 10:35 33.15207 -7.27466 7562 ft 264 kts 259°
2026-05-05 10:35 33.14878 -7.29584 7374 ft 254 kts 259°
2026-05-05 10:36 33.14565 -7.31587 7222 ft 244 kts 259°
2026-05-05 10:36 33.14256 -7.33548 6960 ft 238 kts 259°
2026-05-05 10:36 33.13953 -7.35483 6631 ft 236 kts 259°
2026-05-05 10:36 33.13650 -7.37410 6260 ft 237 kts 259°
2026-05-05 10:37 33.13350 -7.39312 6057 ft 229 kts 259°
2026-05-05 10:37 33.13060 -7.41151 5867 ft 220 kts 259°
2026-05-05 10:37 33.12783 -7.42909 5723 ft 211 kts 259°
2026-05-05 10:37 33.12521 -7.44577 5600 ft 199 kts 259°
2026-05-05 10:38 33.12272 -7.46151 5393 ft 190 kts 260°
2026-05-05 10:38 33.12057 -7.47718 4983 ft 193 kts 264°
2026-05-05 10:38 33.12201 -7.49295 4771 ft 191 kts 288°
2026-05-05 10:38 33.13000 -7.50542 4689 ft 192 kts 318°
2026-05-05 10:39 33.14125 -7.51378 4607 ft 190 kts 336°
2026-05-05 10:39 33.15378 -7.51886 4510 ft 190 kts 344°
2026-05-05 10:39 33.16646 -7.52322 4416 ft 189 kts 344°
2026-05-05 10:39 33.17889 -7.52754 4217 ft 188 kts 344°
2026-05-05 10:40 33.19132 -7.53187 3954 ft 185 kts 346°
2026-05-05 10:40 33.20364 -7.53606 3695 ft 183 kts 346°
2026-05-05 10:40 33.21579 -7.54021 3443 ft 181 kts 346°
2026-05-05 10:40 33.22791 -7.54436 3202 ft 180 kts 347°
2026-05-05 10:41 33.23988 -7.54844 2960 ft 179 kts 346°
2026-05-05 10:41 33.25188 -7.55255 2733 ft 180 kts 347°
2026-05-05 10:41 33.26366 -7.55657 2488 ft 171 kts 346°
2026-05-05 10:41 33.27471 -7.56035 2253 ft 159 kts 347°
2026-05-05 10:42 33.29473 -7.56721 1857 ft 143 kts 347°
2026-05-05 10:42 33.30395 -7.57034 1661 ft 132 kts 346°
2026-05-05 10:42 33.31254 -7.57329 1483 ft 126 kts 347°
2026-05-05 10:43 33.32085 -7.57614 1323 ft 126 kts 348°
2026-05-05 10:43 33.32938 -7.57905 1165 ft 128 kts 347°
2026-05-05 10:43 33.33788 -7.58180 979 ft 125 kts 346°
2026-05-05 10:43 33.34613 -7.58476 796 ft 125 kts 346°
2026-05-05 10:44 33.35455 -7.58773 680 ft 125 kts 347°
2026-05-05 10:44 33.36360 -7.59072 1108 ft 153 kts 348°
2026-05-05 10:44 33.37520 -7.59440 1852 ft 193 kts 349°
2026-05-05 10:44 33.38891 -7.59839 2608 ft 205 kts 349°
2026-05-05 10:45 33.40292 -7.60206 3326 ft 206 kts 350°
2026-05-05 10:45 33.41703 -7.60557 3912 ft 211 kts 346°
2026-05-05 10:45 33.42899 -7.61590 3990 ft 218 kts 304°
2026-05-05 10:45 33.43243 -7.63345 3990 ft 223 kts 263°
2026-05-05 10:46 33.42678 -7.65085 3988 ft 228 kts 240°
2026-05-05 10:46 33.41539 -7.66408 4000 ft 230 kts 213°
2026-05-05 10:46 33.40167 -7.67337 3992 ft 230 kts 208°
2026-05-05 10:46 33.38733 -7.68208 3994 ft 231 kts 207°
2026-05-05 10:47 33.37298 -7.69076 3998 ft 232 kts 208°
2026-05-05 10:47 33.35848 -7.69940 3994 ft 233 kts 207°
2026-05-05 10:47 33.34400 -7.70806 3995 ft 232 kts 207°
2026-05-05 10:47 33.32956 -7.71669 3995 ft 232 kts 207°
2026-05-05 10:48 33.31510 -7.72527 3990 ft 232 kts 205°
2026-05-05 10:48 33.29946 -7.72938 3997 ft 231 kts 178°
2026-05-05 10:48 33.28337 -7.72741 3997 ft 233 kts 170°
2026-05-05 10:48 33.26741 -7.72424 3994 ft 232 kts 169°
2026-05-05 10:49 33.25154 -7.72088 3993 ft 232 kts 169°
2026-05-05 10:49 33.23565 -7.71754 3992 ft 232 kts 169°
2026-05-05 10:49 33.21983 -7.71360 3993 ft 233 kts 162°
2026-05-05 10:49 33.20444 -7.70752 3804 ft 233 kts 158°
2026-05-05 10:50 33.18926 -7.70114 3601 ft 227 kts 158°
2026-05-05 10:50 33.17474 -7.69521 3593 ft 212 kts 158°
2026-05-05 10:50 33.16137 -7.68981 3596 ft 202 kts 158°
2026-05-05 10:50 33.14817 -7.68449 3597 ft 198 kts 159°
2026-05-05 10:51 33.13506 -7.67916 3594 ft 198 kts 158°
2026-05-05 10:51 33.12198 -7.67387 3587 ft 199 kts 159°
2026-05-05 10:51 33.10897 -7.66844 3593 ft 197 kts 158°
2026-05-05 10:51 33.09612 -7.66299 3587 ft 197 kts 158°
2026-05-05 10:52 33.08348 -7.65683 3576 ft 196 kts 148°
2026-05-05 10:52 33.07478 -7.64491 3583 ft 190 kts 109°
2026-05-05 10:52 33.07339 -7.62977 3587 ft 183 kts 81°
2026-05-05 10:52 33.07559 -7.61508 3584 ft 182 kts 75°
2026-05-05 10:53 33.07849 -7.60036 3587 ft 182 kts 74°
2026-05-05 10:53 33.08263 -7.58609 3585 ft 182 kts 67°
2026-05-05 10:53 33.08714 -7.57205 3598 ft 181 kts 67°
2026-05-05 10:53 33.09174 -7.55809 3585 ft 181 kts 66°
2026-05-05 10:54 33.09642 -7.54415 3594 ft 183 kts 66°
2026-05-05 10:54 33.10105 -7.53017 3584 ft 181 kts 66°
2026-05-05 10:54 33.10575 -7.51626 3587 ft 180 kts 62°
2026-05-05 10:54 33.11537 -7.50743 3595 ft 179 kts 13°
2026-05-05 10:55 33.12764 -7.50917 3589 ft 181 kts 343°
2026-05-05 10:55 33.13953 -7.51397 3589 ft 180 kts 344°
2026-05-05 10:55 33.15153 -7.51837 3591 ft 180 kts 347°
2026-05-05 10:55 33.16335 -7.52242 3590 ft 178 kts 346°
2026-05-05 10:56 33.17530 -7.52646 3589 ft 180 kts 347°
2026-05-05 10:56 33.18737 -7.53053 3593 ft 181 kts 346°
2026-05-05 10:56 33.19956 -7.53466 3596 ft 183 kts 346°
2026-05-05 10:56 33.21175 -7.53881 3531 ft 181 kts 346°
2026-05-05 10:57 33.22377 -7.54295 3301 ft 178 kts 347°
2026-05-05 10:57 33.23566 -7.54699 3061 ft 178 kts 346°
2026-05-05 10:57 33.24766 -7.55111 2805 ft 180 kts 347°
2026-05-05 10:57 33.25961 -7.55517 2576 ft 174 kts 345°
2026-05-05 10:58 33.27098 -7.55907 2331 ft 165 kts 347°
2026-05-05 10:58 33.28174 -7.56277 2122 ft 158 kts 347°
2026-05-05 10:58 33.29199 -7.56627 1895 ft 149 kts 347°
2026-05-05 10:58 33.30156 -7.56954 1711 ft 136 kts 348°
2026-05-05 10:59 33.31027 -7.57251 1526 ft 126 kts 345°
2026-05-05 10:59 33.31871 -7.57541 1369 ft 127 kts 346°
2026-05-05 10:59 33.32727 -7.57834 1216 ft 127 kts 346°
2026-05-05 10:59 33.33571 -7.58104 1007 ft 124 kts 346°
2026-05-05 11:00 33.34388 -7.58396 830 ft 124 kts 347°
2026-05-05 11:00 33.35217 -7.58687 683 ft 124 kts 347°
2026-05-05 11:00 33.35983 -7.58941 659 ft 100 kts 343°
2026-05-05 11:00 33.36547 -7.59143 658 ft 71 kts 345°
2026-05-05 11:01 33.36883 -7.59256 661 ft 43 kts 344°
2026-05-05 11:01 33.37147 -7.59334 656 ft 24 kts 358°
2026-05-05 11:01 33.37169 -7.59333 656 ft 1 kts
2026-05-05 11:01 33.37219 -7.59361 661 ft 14 kts 335°
2026-05-05 11:02 33.37315 -7.59413 657 ft 16 kts 335°
2026-05-05 11:02 33.37438 -7.59452 661 ft 22 kts 346°
2026-05-05 11:02 33.37591 -7.59499 658 ft 24 kts 345°
2026-05-05 11:02 33.37685 -7.59521 656 ft 12 kts 11°
2026-05-05 11:03 33.37734 -7.59429 655 ft 15 kts 72°
2026-05-05 11:03 33.37766 -7.59301 654 ft 17 kts 74°
2026-05-05 11:03 33.37802 -7.59151 655 ft 21 kts 73°
2026-05-05 11:03 33.37844 -7.58979 653 ft 22 kts 74°
2026-05-05 11:04 33.37889 -7.58793 657 ft 23 kts 73°
2026-05-05 11:04 33.37905 -7.58660 653 ft 16 kts 109°
2026-05-05 11:04 33.37836 -7.58542 656 ft 18 kts 131°
2026-05-05 11:04 33.37728 -7.58465 658 ft 8 kts 162°
2026-05-05 11:05 33.37676 -7.58448 657 ft 9 kts 167°
2026-05-05 11:05 33.37603 -7.58440 658 ft 12 kts 174°
2026-05-05 11:05 33.37515 -7.58412 658 ft 15 kts 164°
2026-05-05 11:05 33.37409 -7.58374 658 ft 17 kts 163°
2026-05-05 11:06 33.37318 -7.58341 659 ft 0 kts 163°
2026-05-05 11:06 33.37317 -7.58341 659 ft 1 kts 163°
2026-05-05 11:06 33.37291 -7.58332 658 ft 7 kts 163°
2026-05-05 11:06 33.37246 -7.58310 658 ft 4 kts 129°
2026-05-05 11:07 33.37241 -7.58273 659 ft 5 kts 83°
2026-05-05 11:07 33.37252 -7.58234 658 ft 0 kts 71°